• Join FlightAware (Why Join?)
  • Login
  • US Flag 
06:29PM EST


 

Airport Tracker/Info


-or-


 

Live Flight TrackerFlight Track Log ✈ N52712 ✈ 19-Apr-2013 ✈ KLWM - KBED

Flight Track Log - Related Links

Times and Time Zones

All times are in EDT time to prevent confusion due to time zone crossing. See the N52712 flight status page for this flight to view local times or setup timezone preferences in your user account.

Time Position Orientation Groundspeed Altitude Reporting Facility
EDT Latitude Longitude Course Direction KTS MPH feet Rate Location/Type
10:45AM 42.0000 -70.4167 90° East 154 177 1,900  Level KA90
10:45AM 42.0000 -70.4000 90° East 162 186 1,800 -180 Descending KA90
10:46AM 42.0167 -70.3333 71° East 161 185 1,700 -360 Descending KA90
10:47AM 42.0500 -70.2833 48° Northeast 160 184 1,100 -720 Descending KA90
10:48AM 42.0667 -70.2333 66° East 151 174 300 -360 Descending KA90
10:49AM 42.0833 -70.2000 56° Northeast 146 168 500 480 Climbing KA90
10:50AM 42.1167 -70.1833 20° North 161 185 1,300 660 Climbing KA90
10:51AM 42.1167 -70.2167 270° West 112 129 1,900 660 Climbing KA90
10:52AM 42.1000 -70.2500 236° Southwest 95 109 2,700 540 Climbing KA90
10:53AM 42.0833 -70.2833 236° Southwest 102 117 3,000 120 Climbing KA90
10:54AM 42.0667 -70.3167 236° Southwest 115 132 3,000  Level KA90
10:55AM 42.0500 -70.3500 236° Southwest 119 137 3,000  Level KA90
10:56AM 42.0167 -70.3500 180° South 128 147 3,000  Level KA90
10:57AM 41.9667 -70.3667 194° South 127 146 3,000 -60 Level KA90
10:58AM 41.9333 -70.3667 180° South 130 150 2,900 -60 Descending KA90
10:59AM 41.9167 -70.3667 180° South 129 148 2,900 -360 Level KA90
11:00AM 41.8667 -70.4000 206° Southwest 140 161 2,200 -540 Descending KA90
11:01AM 41.8333 -70.4333 217° Southwest 145 167 1,900 -180 Descending KA90
11:02AM 41.8000 -70.4167 160° South 144 166 1,900  Level KA90
11:03AM 41.7833 -70.4000 143° Southeast 136 157 2,000 60 Climbing KA90
11:04AM 41.7500 -70.3667 143° Southeast 129 148 2,100 -300 Climbing KA90
11:05AM 41.7167 -70.3500 160° South 119 137 1,400 -660 Descending KA90
11:06AM 41.7000 -70.3167 124° Southeast 114 131 800 -600 Descending KA90
11:07AM 41.6833 -70.3000 143° Southeast 112 129 300 -540 Descending KA90
11:09AM 41.7001 -70.3207 317° Northwest  Level Estimated
11:16AM 41.8098 -70.4567 317° Northwest  Level Estimated
11:17AM 41.8255 -70.4761 317° Northwest  Level Estimated
11:18AM 41.8411 -70.4956 317° Northwest  Level Estimated